Total_Precipitation_Accumulation
1.83 1.98 2.51 2.40 2.37 2.54 2.69 2.78 2.90 2.90 2.87 3.05 3.26 3.38 3.44 3.78 3.92 4.09 4.24 4.70 5.23 5.54 5.87 6.24 5.96 5.47 5.29 5.00 4.64 4.20 3.91 3.72 3.59 3.44 3.36 3.13 2.99 3.05 3.29 3.44 3.26 2.47 2.39
1.42 1.67 2.27 2.35 2.38 2.42 2.39 2.39 2.50 2.74 2.81 2.82 3.13 3.49 3.48 3.78 3.99 4.00 4.38 4.89 5.32 5.44 5.52 5.69 5.54 5.06 4.87 4.54 4.09 3.69 3.60 3.61 3.76 3.80 3.69 3.31 3.28 3.39 3.45 3.26 3.31 2.46 2.31
1.24 1.50 1.88 2.21 2.23 2.18 2.09 2.21 2.34 2.43 2.58 2.68 3.06 3.52 3.49 3.69 3.97 4.09 4.48 4.88 5.15 5.26 5.19 5.27 5.10 4.69 4.44 3.97 3.48 3.34 3.43 3.62 3.92 4.25 4.14 3.05 2.72 3.18 3.18 2.95 2.74 2.42 2.28
1.27 1.50 1.75 1.94 1.97 1.98 1.93 2.11 2.34 2.44 2.56 2.71 2.97 3.43 3.52 3.63 3.89 4.17 4.51 4.60 4.92 5.05 5.06 4.82 4.48 4.22 3.90 3.52 3.33 3.34 3.43 3.54 3.99 4.41 3.95 2.70 2.15 2.47 2.56 2.50 2.53 2.21 2.10
1.17 1.38 1.72 1.78 1.82 1.88 2.00 2.30 2.48 2.53 2.63 2.76 2.96 3.31 3.57 3.63 3.72 4.13 4.48 4.47 4.58 4.58 4.48 4.20 4.02 3.89 3.50 3.25 3.31 3.31 3.41 3.76 4.11 3.81 2.90 2.64 2.61 2.59 2.34 2.29 2.29 2.04 1.85
1.01 1.16 1.53 1.64 1.57 1.72 2.14 2.37 2.39 2.43 2.51 2.68 2.95 3.23 3.45 3.44 3.67 4.07 4.18 4.11 4.00 4.05 4.03 4.04 3.99 3.79 3.34 3.14 3.22 3.28 3.46 3.60 3.33 2.41 2.16 2.19 2.24 2.44 2.31 2.41 2.27 2.04 1.87
1.02 1.11 1.33 1.48 1.44 1.64 1.99 2.27 2.29 2.27 2.40 2.60 2.90 3.11 3.29 3.41 3.66 3.86 3.71 3.68 3.66 3.58 3.62 3.85 3.99 3.75 3.51 3.48 3.43 3.38 3.25 3.32 2.54 1.89 2.05 2.23 2.00 1.99 2.03 2.44 2.39 2.13 1.92
0.93 0.92 1.08 1.39 1.43 1.55 1.79 2.11 2.33 2.26 2.28 2.43 2.57 2.84 2.97 3.11 3.28 3.37 3.52 3.70 3.65 3.42 3.34 3.48 3.67 3.74 3.92 3.96 3.76 3.41 3.19 2.92 2.00 1.81 1.86 1.85 1.66 1.70 1.84 2.22 2.34 2.36 2.30
0.87 0.89 1.02 1.22 1.30 1.51 1.90 2.19 2.36 2.36 2.41 2.43 2.48 2.77 2.91 3.10 3.09 3.13 3.35 3.51 3.44 3.47 3.29 3.09 2.98 2.95 3.25 3.36 3.13 2.90 3.02 2.92 2.11 1.90 1.68 1.54 1.39 1.51 1.83 2.02 2.14 2.36 2.48
1.05 1.05 1.16 1.27 1.24 1.28 1.63 2.19 2.45 2.56 2.67 2.74 2.84 3.01 3.18 3.52 3.55 3.42 3.15 3.09 3.16 3.21 3.27 2.89 2.63 2.46 2.55 2.45 2.35 2.39 2.59 2.35 2.18 2.02 1.89 1.64 1.48 1.65 1.94 2.02 1.99 2.04 2.06
1.44 1.35 1.37 1.28 1.24 1.29 1.46 1.86 2.24 2.58 2.96 3.21 3.25 3.19 3.30 3.60 3.71 3.76 3.35 3.54 3.43 3.31 3.28 2.94 2.62 2.33 2.30 2.14 2.18 2.41 2.16 1.84 2.02 2.00 1.91 1.77 1.72 1.98 2.22 2.19 2.10 1.99 1.87
1.85 1.56 1.48 1.36 1.35 1.32 1.29 1.64 2.07 2.20 2.64 2.95 3.06 3.03 3.21 3.52 3.78 3.44 3.87 4.13 4.00 3.85 3.54 3.24 3.14 2.67 2.28 2.18 2.62 2.86 1.89 1.63 1.66 1.66 1.70 1.69 2.00 2.37 2.55 2.33 2.13 2.09 2.00
1.77 1.86 1.85 1.69 1.64 1.65 1.82 1.71 1.98 2.32 2.59 2.63 2.62 2.88 3.29 3.30 3.41 3.31 3.58 4.09 4.20 4.18 3.86 3.69 3.55 2.94 2.74 2.97 3.05 2.71 2.08 1.94 1.87 1.84 1.94 2.08 2.36 2.77 2.91 2.60 2.43 2.33 2.26
2.06 2.34 2.51 2.21 2.26 2.22 2.03 1.92 2.01 2.18 2.40 2.59 2.89 2.95 3.11 3.50 3.72 3.57 3.54 3.65 3.93 4.07 4.33 4.03 3.85 3.55 3.32 3.18 3.07 2.69 2.44 2.41 2.41 2.53 2.75 2.45 2.49 2.87 3.10 2.96 2.87 2.76 2.63
2.69 2.98 3.20 2.81 2.78 2.70 2.72 2.68 2.41 2.54 2.63 2.82 3.09 3.27 3.34 3.68 3.97 3.97 3.77 3.67 3.54 3.53 3.80 4.01 3.83 3.88 3.73 3.45 3.08 2.78 2.68 2.57 2.48 2.62 2.79 2.90 2.86 2.94 3.27 3.47 3.40 3.21 3.12
3.12 3.31 3.48 3.39 3.46 3.36 3.17 3.27 3.23 2.85 2.97 3.01 3.14 3.27 3.43 3.67 4.19 4.36 4.15 4.02 3.61 3.43 3.45 3.75 3.84 4.08 3.98 3.71 3.04 2.85 2.80 2.75 2.72 2.63 2.80 3.36 3.45 3.07 3.16 3.54 3.81 3.90 3.78
3.94 3.90 3.95 3.94 4.26 4.18 3.82 3.52 3.24 3.06 3.04 3.29 3.37 3.45 3.49 3.74 4.26 4.30 4.07 3.66 3.31 3.21 3.46 3.55 3.64 3.92 3.70 3.53 3.35 3.26 3.17 3.04 2.90 2.83 2.91 3.45 3.45 3.11 3.03 3.15 3.53 3.92 4.11
4.77 4.70 4.52 4.11 4.53 4.60 4.37 4.18 3.80 3.55 3.59 3.61 3.35 3.48 3.42 3.60 3.59 3.72 3.46 3.14 3.17 3.25 3.43 3.67 3.59 3.70 3.71 3.73 3.79 3.67 3.44 3.27 2.84 2.62 2.53 2.74 3.04 2.72 2.95 3.22 3.38 3.57 4.07
5.22 5.45 5.42 5.32 5.11 4.92 4.74 4.62 4.44 4.30 4.02 3.64 3.48 3.59 3.31 2.99 2.83 3.07 3.11 3.13 3.01 3.16 3.23 3.00 3.40 3.70 3.74 3.75 3.44 3.50 3.08 2.98 2.79 2.45 2.41 2.40 2.59 2.77 2.85 2.93 3.19 3.27 3.77
5.14 5.73 5.93 6.05 5.78 5.34 4.87 4.52 4.47 4.26 4.02 3.73 3.50 3.52 3.10 2.85 2.66 3.00 2.99 2.99 2.94 3.14 3.28 3.33 3.62 3.78 3.46 3.43 3.07 3.02 2.80 2.43 2.43 2.38 2.20 2.30 2.44 2.36 2.59 2.79 3.19 2.99 3.51
4.68 5.42 5.59 5.97 5.57 4.98 4.44 4.02 3.91 3.76 3.47 3.36 3.23 3.17 3.12 2.91 2.85 3.11 2.96 3.13 2.95 3.02 3.03 3.08 3.35 3.49 3.13 3.18 3.67 3.29 2.68 2.25 2.28 2.17 2.18 2.28 2.31 2.37 2.66 3.03 3.28 3.38 3.39
4.04 4.81 4.90 4.62 4.47 4.07 3.74 3.60 3.45 3.42 3.08 2.95 2.85 3.00 2.81 2.69 2.80 2.82 3.00 2.84 2.77 2.96 2.98 3.05 3.33 3.26 2.95 3.17 3.73 3.90 3.36 2.92 2.56 2.11 2.13 2.16 2.24 2.51 2.62 2.72 3.21 3.57 3.55
3.69 3.82 3.51 3.37 3.48 3.45 3.30 3.23 3.14 3.16 2.98 2.78 2.69 2.79 2.66 2.45 2.52 2.58 2.55 2.61 2.75 2.48 2.75 3.06 3.18 3.22 3.19 3.09 3.31 3.84 3.72 3.31 2.90 2.48 2.27 2.32 2.50 2.67 2.77 2.97 3.07 3.33 3.57
2.88 2.76 2.78 2.81 2.89 3.11 3.11 2.93 2.79 2.57 2.52 2.51 2.46 2.55 2.65 2.38 2.23 2.24 2.26 2.48 2.62 2.57 2.89 2.61 2.76 3.05 3.30 3.08 3.07 3.07 3.17 3.43 3.43 3.04 2.60 2.42 2.46 2.58 2.70 2.74 2.88 3.24 3.55
2.18 2.24 2.28 2.65 2.78 2.81 2.82 2.82 2.88 2.61 2.48 2.48 2.62 2.84 2.81 2.46 2.10 1.94 2.11 2.37 2.53 2.58 2.68 2.63 2.76 2.76 2.83 2.84 2.92 2.92 3.11 3.40 3.21 3.08 2.95 2.75 2.57 2.40 2.47 2.60 2.83 3.19 3.31
1.52 1.65 1.82 2.20 2.46 2.51 2.47 2.47 2.53 2.57 2.61 2.47 2.49 2.60 2.54 2.40 2.21 2.01 2.05 2.33 2.44 2.51 2.57 2.61 2.60 2.53 2.61 2.71 2.78 2.82 3.03 3.08 3.08 3.15 2.95 2.74 2.63 2.40 2.34 2.44 2.63 2.78 2.87